Location: Bowman Observatory
(41.0326°N, 73.6210°W)
Time: 00:52:50
(UTC-04:00)

Cosmos 2298 Rocket - Visible Passes

Search period start: 24 July 2017 00:00
Search period end: 03 August 2017 00:00
Orbit: 777 x 783 km, 74.0° (Epoch: 23 July)

Date Brightness Start Highest point End Pass type
(mag) Time Alt. Az. Time Alt. Az. Time Alt. Az.
24 Jul 6.0 21:44:04 10° SW 21:48:45 31° WNW 21:53:27 10° N visible
25 Jul 5.2 21:10:04 10° SW 21:15:09 48° WNW 21:20:18 10° N visible
26 Jul 7.4 22:23:34 10° WNW 22:24:54 11° NW 22:26:16 10° NW visible
27 Jul 7.1 21:47:46 10° W 21:51:05 17° NW 21:54:25 10° NNW visible
28 Jul 7.3 04:51:35 10° NNE 04:55:04 17° NE 04:58:31 10° E visible
28 Jul 6.6 21:13:02 10° WSW 21:17:20 25° WNW 21:21:39 10° N visible
29 Jul 7.7 04:19:31 10° NNE 04:21:14 11° NE 04:22:57 10° ENE visible
29 Jul 5.9 20:38:49 10° SW 20:43:41 37° WNW 20:48:36 10° N visible
31 Jul 6.1 04:52:35 10° N 04:57:22 33° ENE 05:02:07 10° SE visible
31 Jul 7.6 21:17:20 10° W 21:19:45 13° NW 21:22:10 10° NNW visible
01 Aug 6.8 04:19:37 10° N 04:23:42 22° ENE 04:27:46 10° ESE visible
01 Aug 7.2 20:42:10 10° WSW 20:45:57 20° WNW 20:49:45 10° N visible
02 Aug 7.1 03:47:00 10° NNE 03:49:56 15° NE 03:52:51 10° E visible
